National Weather Service United States Department of Commerce

Latest Hourly Weather Roundup

 

 

    
                        
926
ASUS43 KTOP 242008
RWRKS

WEATHER ROUNDUP FOR KANSAS
NATIONAL WEATHER SERVICE GOODLAND KS
300 PM CDT WED JUL 24 2024

NOTE:  "FAIR" INDICATES FEW OR NO CLOUDS BELOW 12,000 FEET WITH NO
SIGNIFICANT WEATHER AND/OR OBSTRUCTIONS TO VISIBILITY.

KSZ001>006-013>018-027>032-041>047-242100-
NORTHWEST KANSAS

CITY           SKY/WX    TMP DP  RH WIND       PRES   REMARKS
GOODLAND       SUNNY     91  54  28 VRB5      30.21S
HAYS           SUNNY     91  56  30 VRB5      30.15F
HILL CITY      SUNNY     95  32  11 W6        30.15F
RUSSELL        SUNNY     94  53  25 E7        30.13F
$$

KSZ061>065-074>080-084>089-242100-
SOUTHWEST KANSAS

CITY           SKY/WX    TMP DP  RH WIND       PRES   REMARKS
DODGE CITY     SUNNY     89  58  34 S6        30.19F
ELKHART        SUNNY     90  55  31 S8        30.26S
GARDEN CITY    SUNNY     90  54  29 VRB3      30.19F
GREAT BEND     SUNNY     92  59  33 SE9       30.16F
LIBERAL        SUNNY     91  53  27 VRB6      30.21S
PRATT          SUNNY     92  59  33 SW6       30.16F
$$

KSZ066>073-081>083-090>101-242100-
SOUTHEAST KANSAS

CITY           SKY/WX    TMP DP  RH WIND       PRES   REMARKS
CHANUTE        MOSUNNY   95  64  35 E6        30.14F HX  97
COFFEYVILLE    MOSUNNY   90  64  42 CALM      30.12F
HUTCHINSON     PTSUNNY   92  60  34 S9G16     30.13F
MEDICINE LODGE   N/A     93  62  35 SE5       30.13F
NEWTON         MOSUNNY   93  62  35 VRB6      30.15F
PARSONS        PTSUNNY   90  66  45 VRB5      30.14F
WICHITA INTL   MOSUNNY   92  62  36 SE9       30.13F
WICHITA JABRA  SUNNY     90  62  39 MISG      30.14F
WICHITA MCCONL MOSUNNY   92  62  35 S5        30.13F
WINFIELD       MOSUNNY   92  66  42 VRB7      30.15F
$$

KSZ007>012-019>026-033>040-048>060-102>105-242100-
NORTHEAST KANSAS

CITY           SKY/WX    TMP DP  RH WIND       PRES   REMARKS
CONCORDIA      SUNNY     95  57  27 CALM      30.12F
EMPORIA        MOSUNNY   94  62  34 VRB5      30.13F
LAWRENCE       PTSUNNY   93  69  45 W7        30.12S HX  98
MANHATTAN      SUNNY     93  66  40 VRB3      30.11F HX  96
MARYSVILLE     MOSUNNY   90  61  37 W6        30.12F
OLATHE IND     MOSUNNY   90  65  43 VRB6      30.14F
OLATHE EXE     MOSUNNY   89  66  46 S8        30.14S
SALINA         PTSUNNY   96  59  29 W12       30.12F HX  95
TOPEKA BILLARD SUNNY     92  66  42 VRB5      30.11F
TOPEKA FORBES  MOSUNNY   90  68  48 SW8G21    30.12F
$$